307 visiteurs
Prévisions de votre ville :
Vigilance : 28 départements Mise à jour le 17/10/2019 à 16:07 - Voir la carte

Paris Roissy CDG (95380) le 18/10/2019 à 04:00 Choisir station

13.7°C 83 % S Rafales 41 km/h
Vit. moyenne 26 kmh/h

Relevés météo quotidiens pour la station de :

UTC
S: Synop
M: Metar
Loc T°C
(°C)
Td
(°C)
HR
(%)
Vis
(km)
Néb
(octa)
Vent
(km/h)
Pression
(mb)
Précipitations
(mm)
Temps
              MOY
10 min
DIR RAF 1h MESURE VAR SUR 3h    
S 00 h 02h 22.3 18.3 78 - 19 28 1012.3 -0.4/3h 0.0/6h - 0.0/3h -
S 01 h 03h 22.0 18.6 81 - 20 26 1012.2 -0.3/3h 0.0/1h -
S 02 h 04h 22.2 17.8 76 - 19 24 1012.1 -0.4/3h 0.0/1h -
S 03 h 05h 22.4 17.5 74 15 0/8 17 28 1011.9 -0.4/3h 0.0/3h
S 04 h 06h 21.8 16.7 73 - 17 22 1012.3 +0.1/3h 0.0/1h -
S 05 h 07h 21.7 17.3 76 - 6 11 1012.7 +0.6/3h 0.0/1h -
S 06 h 08h 22.8 17.0 70 22 4/8 15 22 1013.0 +1.1/3h 0.0/12h - 0.0/3h - 0.0/24h
S 07 h 09h 25.8 18.0 62 - 15 24 1013.0 +0.9/3h 0.0/1h -
S 08 h 10h 28.0 20.3 63 - 13 24 1013.0 +0.6/3h 0.0/1h -
S 09 h 11h 28.3 21.8 68 4/8 6 11 1013.1 +0.5/3h 0.0/3h
S 10 h 12h 28.4 21.7 67 - 11 15 1013.1 +0.3/3h 0.0/1h -
S 11 h 13h 29.5 21.7 63 - 20 30 1012.8 -0.1/3h 0.0/1h -
S 12 h 14h 27.7 22.2 72 15 4/8 17 28 1013.1 -0.1/3h 0.0/6h - 0.0/3h
S 13 h 15h 29.1 20.8 61 - 17 24 1012.9 -0.2/3h 0.0/1h -
S 14 h 16h 29.4 20.3 58 - 9 15 1012.6 -0.2/3h 0.0/1h -
S 15 h 17h 29.6 18.4 51 - 22 31 1012.1 -0.9/3h 0.0/3h -
S 16 h 18h 29.1 12.5 36 - 26 33 1011.8 -1.1/3h 0.0/1h -
S 17 h 19h 27.5 13.1 41 - 30 43 1011.5 -1.2/3h 0.0/1h -
S 18 h 20h 26.1 16.9 57 - 15 24 1011.5 -0.8/3h 0.0/12h - 0.0/3h -
S 19 h 21h 23.9 19.0 74 - 37 57 1011.4 -0.7/3h 0.0/1h -
S 20 h 22h 23.5 19.0 76 - 39 54 1011.9 +0.2/3h 0.0/1h -
S 21 h 23h 24.0 16.0 61 - 31 50 1012.3 +0.7/3h 0.0/3h -
S 22 h 00h 23.9 15.4 59 - 9 19 1012.4 +1.0/3h 0.0/1h -
S 23 h 01h 23.6 17.1 67 - 30 44 1012.1 +0.2/3h 0.0/1h -
evolution des temperatures
cumul des precipitations
vent moyen et rafales
pression atmospherique

Un tiret (-) signifie que les données ne sont pas disponibles.

Passez la souris sur les pictos temps pour avoir plus de précisions. Passez les flèches sur l'icône de la direction du vent pour voir la direction précise en degrés.

Les données de l'heure en cours sont disponibles à partir de H+15 minutes.


S signifie station Synop, plus complète qu'une station Metar (M). Il y a +1h de différence entre l'heure UTC et l'heure légale en hiver et +2h en été.

Td est la mesure du point de rosée.

HR est l'humidité relative/p>

Vis est la visibilité

Néb est la nébulosité du ciel (couverture nuageuse) exprimée en octas (de 0/8 à 8/8).

Vent moy 10 min donne le vent moyen sur les 10 minutes qui précèdent le relevé.

Vent raf 1h donne la rafale maximale mesurée dans l'heure qui précède le relevé.


Les données les plus anciennes remontent à avril 2014.

Les données présentées sur cette page proviennent des stations météo officielles. Les relevés sont effectués aux normes en vigueur (anémomètre à 10m de haut, thermomètre sous abri normalisé à 2m du sol...)

Météo 60 décline toute responsabilité en cas d'absence de données, d'erreurs, de mauvaise utilisation ou interprétation et n'est pas habilité à fournir des certificats intempéries.